Weather History for Wise, VA

Change the Weather History Date:

Friday, March 2, 2012

  Actual Average Record
Temperature  
Mean Temperature 53 °F -  
Max Temperature 60 °F 46 °F 66 °F (2006)
Min Temperature 46 °F 30 °F 8 °F (2009)
Degree Days  
Heating Degree Days 12    
Growing Degree Days 3 (Base 50)    
Moisture  
Dew Point 43 °F    
Average Humidity 70    
Maximum Humidity 100    
Minimum Humidity 41    
Precipitation  
Precipitation 0.85 in - - ()
Sea Level Pressure  
Sea Level Pressure 29.76 in    
Wind  
Wind Speed 8 mph (South)    
Max Wind Speed 24 mph    
Max Gust Speed 29 mph    
Visibility 9 miles    
Events Rain , Thunderstorm    
Averages and records for this station are not official NWS values.
T = Trace of Precipitation, MM = Missing Value Source: NWS Daily Summary

Daily Weather History Graph

Daily Weather History Graph

Search for Another Location

Airport:

Trip Planner

Search our weather history database for the weather conditions in past years. The results will help you decide how hot, cold, wet, or windy it might be!

Date:

Astronomy

Mar. 02, 2012 Rise Set
Actual Time 6:58 AM EST 6:25 PM EST
Civil Twilight 6:32 AM EST 6:51 PM EST
Nautical Twilight 6:02 AM EST 7:21 PM EST
Astronomical Twilight 5:32 AM EST 7:52 PM EST
Moon 12:43 PM EST (3/2) 2:41 AM EST (3/2)
Length of Visible Light 12h 18m
Length of Day
11h 26m
Waxing Gibbous, 66% of the Moon is Illuminated
Mar 2
Waxing Gibbous
Mar 8
Full
Mar 14
Last Quarter
Mar 22
New
Mar 30
First Quarter

Hourly Weather History & Observations

Time (EST) Temp. Dew Point Humidity Pressure Visibility Wind Dir Wind Speed Gust Speed Precip Events Conditions
12:15 AM 48.2 °F 30.2 °F 50% 29.91 in 10.0 mi SSW 5.8 mph - N/A   Clear
12:55 AM 50.0 °F 30.2 °F 47% 29.90 in 10.0 mi SSW 5.8 mph - N/A   Clear
1:15 AM 50.0 °F 28.4 °F 43% 29.90 in 10.0 mi South 4.6 mph - N/A   Clear
1:35 AM 51.8 °F 28.4 °F 41% 29.90 in 10.0 mi South 6.9 mph - N/A   Clear
1:55 AM 51.8 °F 30.2 °F 44% 29.90 in 10.0 mi South 9.2 mph - N/A   Clear
2:15 AM 51.8 °F 32.0 °F 47% 29.89 in 10.0 mi SSE 8.1 mph - N/A   Clear
2:35 AM 51.8 °F 32.0 °F 47% 29.88 in 10.0 mi SSE 8.1 mph - N/A   Clear
2:55 AM 51.8 °F 32.0 °F 47% 29.88 in 10.0 mi SSE 6.9 mph - N/A   Clear
3:35 AM 50.0 °F 32.0 °F 50% 29.88 in 10.0 mi South 3.5 mph - N/A   Clear
3:55 AM 46.4 °F 32.0 °F 57% 29.88 in 10.0 mi Calm Calm - N/A   Clear
4:15 AM 48.2 °F 30.2 °F 50% 29.87 in 10.0 mi SSE 5.8 mph - N/A   Clear
4:35 AM 51.8 °F 30.2 °F 44% 29.87 in 10.0 mi SSE 6.9 mph - N/A   Clear
4:55 AM 51.8 °F 30.2 °F 44% 29.87 in 10.0 mi SSE 8.1 mph - N/A   Clear
5:15 AM 51.8 °F 30.2 °F 44% 29.87 in 10.0 mi SSE 8.1 mph - N/A   Clear
5:35 AM 51.8 °F 30.2 °F 44% 29.87 in 10.0 mi SSE 8.1 mph - N/A   Clear
5:55 AM 51.8 °F 30.2 °F 44% 29.87 in 10.0 mi SSE 9.2 mph - N/A   Clear
6:15 AM 51.8 °F 30.2 °F 44% 29.87 in 10.0 mi SSE 8.1 mph - N/A   Clear
6:35 AM 53.6 °F 32.0 °F 44% 29.87 in 10.0 mi SSE 6.9 mph - N/A   Clear
6:55 AM 53.6 °F 32.0 °F 44% 29.86 in 10.0 mi SSE 5.8 mph - N/A   Mostly Cloudy
7:15 AM 53.6 °F 33.8 °F 47% 29.85 in 10.0 mi SE 5.8 mph - N/A   Overcast
7:35 AM 53.6 °F 33.8 °F 47% 29.84 in 10.0 mi SE 6.9 mph - N/A Rain Light Rain
7:55 AM 53.6 °F 33.8 °F 47% 29.84 in 10.0 mi Calm Calm - N/A   Overcast
8:15 AM 53.6 °F 39.2 °F 58% 29.84 in 10.0 mi South 4.6 mph - N/A Rain Rain
8:35 AM 51.8 °F 42.8 °F 71% 29.84 in 10.0 mi SSW 4.6 mph - N/A Rain Light Rain
8:55 AM 55.4 °F 41.0 °F 58% 29.81 in 10.0 mi South 9.2 mph - N/A   Scattered Clouds
9:15 AM 55.4 °F 41.0 °F 58% 29.81 in 10.0 mi SSE 10.4 mph - N/A Rain Rain
9:35 AM 53.6 °F 41.0 °F 62% 29.80 in 10.0 mi SSE 9.2 mph - 0.01 in Rain Light Rain
9:55 AM 51.8 °F 42.8 °F 71% 29.79 in 10.0 mi SSE 9.2 mph - 0.02 in   Overcast
10:15 AM 53.6 °F 41.0 °F 62% 29.77 in 10.0 mi SSE 9.2 mph 16.1 mph N/A Thunderstorm Mostly Cloudy
10:35 AM 51.8 °F 41.0 °F 67% 29.77 in 10.0 mi South 9.2 mph - N/A Rain , Thunderstorm Rain
10:55 AM 50.0 °F 44.6 °F 82% 29.78 in 7.0 mi SW 3.5 mph - 0.05 in Rain , Thunderstorm Light Thunderstorms and Rain
11:15 AM 48.2 °F 44.6 °F 87% 29.77 in 4.0 mi South 5.8 mph - 0.03 in Rain , Thunderstorm Heavy Thunderstorms and Rain
11:35 AM 48.2 °F 46.4 °F 93% 29.77 in 5.0 mi East 3.5 mph - 0.12 in Rain , Thunderstorm Thunderstorms and Rain
11:55 AM 48.2 °F 46.4 °F 93% 29.77 in 3.0 mi Calm Calm - 0.16 in Rain , Thunderstorm Heavy Thunderstorms and Rain
12:15 PM 48.2 °F 46.4 °F 93% 29.73 in 7.0 mi ESE 5.8 mph - 0.02 in Rain Rain
12:35 PM 50.0 °F 48.2 °F 94% 29.74 in 10.0 mi West 5.8 mph - 0.02 in   Light Drizzle
12:55 PM 51.8 °F 48.2 °F 88% 29.73 in 10.0 mi South 11.5 mph 25.3 mph 0.04 in Rain , Thunderstorm Light Thunderstorms and Rain
1:15 PM 51.8 °F 50.0 °F 94% 29.74 in 3.0 mi SSW 11.5 mph 16.1 mph 0.11 in Rain , Thunderstorm Heavy Thunderstorms and Rain
1:35 PM 51.8 °F 51.8 °F 100% 29.77 in 4.0 mi West 12.7 mph 17.3 mph 0.22 in Rain , Thunderstorm Heavy Thunderstorms and Rain
1:55 PM 51.8 °F 51.8 °F 100% 29.73 in 5.0 mi South 9.2 mph - 0.34 in Rain , Thunderstorm Thunderstorms and Rain
2:15 PM 55.4 °F 55.4 °F 100% 29.70 in 10.0 mi South 9.2 mph - 0.01 in Rain Light Rain
2:35 PM 55.4 °F 55.4 °F 100% 29.69 in 10.0 mi South 15.0 mph - 0.01 in Rain Rain
2:55 PM 57.2 °F 55.4 °F 94% 29.69 in 10.0 mi South 18.4 mph 21.9 mph 0.01 in   Overcast
3:15 PM 59.0 °F 55.4 °F 88% 29.68 in 10.0 mi South 15.0 mph 20.7 mph N/A   Overcast
3:35 PM 59.0 °F 55.4 °F 88% 29.68 in 10.0 mi South 18.4 mph 21.9 mph N/A   Overcast
3:55 PM 60.8 °F 55.4 °F 82% 29.67 in 10.0 mi South 19.6 mph 27.6 mph N/A   Mostly Cloudy
4:15 PM 59.0 °F 53.6 °F 82% 29.66 in 10.0 mi South 15.0 mph 25.3 mph N/A   Overcast
4:55 PM 59.0 °F 53.6 °F 82% 29.64 in 10.0 mi South 16.1 mph 27.6 mph N/A   Mostly Cloudy
5:15 PM 59.0 °F 53.6 °F 82% 29.63 in 10.0 mi South 18.4 mph 28.8 mph N/A   Scattered Clouds
5:35 PM 59.0 °F 53.6 °F 82% 29.63 in 10.0 mi South 10.4 mph 23.0 mph N/A   Scattered Clouds
5:55 PM 57.2 °F 53.6 °F 88% 29.63 in 10.0 mi South 12.7 mph 16.1 mph N/A   Mostly Cloudy
6:15 PM 57.2 °F 53.6 °F 88% 29.62 in 10.0 mi SSW 15.0 mph 20.7 mph N/A   Overcast
6:35 PM 57.2 °F 53.6 °F 88% 29.62 in 10.0 mi South 11.5 mph 18.4 mph N/A   Mostly Cloudy
6:55 PM 59.0 °F 53.6 °F 82% 29.59 in 10.0 mi South 13.8 mph 19.6 mph N/A   Mostly Cloudy
7:15 PM 59.0 °F 53.6 °F 82% 29.59 in 10.0 mi SSW 18.4 mph 24.2 mph N/A   Scattered Clouds
7:35 PM 59.0 °F 53.6 °F 82% 29.62 in 10.0 mi SW 16.1 mph 21.9 mph N/A Rain Light Rain
7:55 PM 59.0 °F 53.6 °F 82% 29.63 in 2.0 mi SW 24.2 mph 28.8 mph 0.20 in Rain , Thunderstorm Heavy Thunderstorms and Rain
8:15 PM 59.0 °F 55.4 °F 88% 29.63 in 10.0 mi SW 17.3 mph 24.2 mph N/A   Scattered Clouds
8:35 PM 60.8 °F 55.4 °F 82% 29.63 in 10.0 mi SW 12.7 mph 23.0 mph N/A   Scattered Clouds
8:55 PM 60.8 °F 55.4 °F 82% 29.63 in 10.0 mi SW 13.8 mph - N/A   Mostly Cloudy
9:15 PM 60.8 °F 55.4 °F 82% 29.64 in 10.0 mi WSW 13.8 mph 23.0 mph 0.01 in Rain , Thunderstorm Rain
9:35 PM 59.0 °F 55.4 °F 88% 29.66 in 10.0 mi WNW 9.2 mph 17.3 mph 0.03 in Rain , Thunderstorm Thunderstorms and Rain
9:55 PM 55.4 °F 55.4 °F 100% 29.65 in 2.0 mi SW 13.8 mph 20.7 mph 0.25 in Rain , Thunderstorm Thunderstorms and Rain
10:15 PM 55.4 °F 55.4 °F 100% 29.65 in 10.0 mi SW 11.5 mph - 0.02 in Rain , Thunderstorm Rain
10:35 PM 57.2 °F 55.4 °F 94% 29.64 in 7.0 mi SW 13.8 mph 19.6 mph 0.05 in Rain , Thunderstorm Rain
10:55 PM 55.4 °F 55.4 °F 100% 29.65 in 5.0 mi WSW 12.7 mph 20.7 mph 0.10 in Rain , Thunderstorm Rain
11:15 PM 55.4 °F 55.4 °F 100% 29.64 in 7.0 mi SW 9.2 mph 19.6 mph 0.03 in Rain , Thunderstorm Rain
11:35 PM 55.4 °F 55.4 °F 100% 29.64 in 10.0 mi SW 9.2 mph - 0.04 in Rain , Thunderstorm Light Thunderstorms and Rain
11:55 PM 55.4 °F 55.4 °F 100% 29.64 in 10.0 mi SW 11.5 mph - 0.04 in   Overcast